sat.trackr.live / text

‹ back to catalog

STARLINK-4120

NORAD 53537 · 2022-101L

PAYLOAD ACTIVE UNKNOWN

§ Identity

Operator
Country
US
Launch date
2022-08-19
Launch site
AFETR
Launch vehicle
Mass (kg)
RCS (m²)

Purposes: comms

External: N2YO · Heavens-Above · Gunter

§ Orbital elements

Epoch: 2026-05-24T13:46:21.839232Z

Period
95.44 min
Inclination
53.2168°
Eccentricity
0.0001529
Mean motion
15.08833021 rev/d
Perigee alt
538.7 km
Apogee alt
540.8 km
Semi-major
6,917.9 km
B*
8.3883e-5
RAAN
93.4315°
Arg perigee
76.1080°
Mean anomaly
284.0082°
Rev number
20,762

§ Raw data

STARLINK-41201 53537U 22101L   26144.57386388  .00001047  00000+0  83883-4 0  99992 53537  53.2168  93.4315 0001529  76.1080 284.0082 15.08833021207626

JSON: /api/v1/satellites/53537 · /tle

For live sub-satellite position, see the globe view (requires WebGL).

§ Visibility from observer

Set your observer location to see the next 7 days of passes ≥ 10°. The values pass through the URL so the page stays shareable.

No JS? Fill the form by hand. The geolocation button needs JavaScript.